Time,TemperatureF,DewpointF,PressureIn,WindDirection,WindDirectionDegrees,WindSpeedMPH,WindSpeedGustMPH,Humidity,HourlyPrecipIn,Conditions,Clouds,dailyrainin,SolarRadiationWatts/m^2,SoftwareType,DateUTC
2013-05-13 00:02:00,57.6,48.9,30.15,SW,230,0.0,1.0,73,0.00,,,0.00,0.0,meteohub,2013-05-13 07:02:00,
2013-05-13 00:07:00,57.6,48.9,30.16,West,265,1.0,1.0,73,0.00,,,0.00,0.0,meteohub,2013-05-13 07:07:00,
2013-05-13 00:12:00,57.6,48.9,30.15,West,272,0.0,3.0,73,0.00,,,0.00,0.0,meteohub,2013-05-13 07:12:00,
2013-05-13 00:17:00,57.6,48.9,30.16,West,272,0.0,3.0,73,0.00,,,0.00,0.0,meteohub,2013-05-13 07:17:00,
2013-05-13 00:22:00,57.6,48.6,30.15,West,272,0.0,3.0,72,0.00,,,0.00,0.0,meteohub,2013-05-13 07:22:00,
2013-05-13 00:27:00,57.4,48.4,30.15,West,272,0.0,1.0,72,0.00,,,0.00,0.0,meteohub,2013-05-13 07:27:00,
2013-05-13 00:32:00,57.4,48.4,30.15,West,272,0.0,2.0,72,0.00,,,0.00,0.0,meteohub,2013-05-13 07:32:00,
2013-05-13 00:37:00,57.2,47.8,30.15,West,272,0.0,2.0,71,0.00,,,0.00,0.0,meteohub,2013-05-13 07:37:00,
2013-05-13 00:42:00,57.0,47.7,30.15,West,272,0.0,2.0,71,0.00,,,0.00,0.0,meteohub,2013-05-13 07:42:00,
2013-05-13 00:47:00,56.8,47.1,30.15,West,272,0.0,1.0,70,0.00,,,0.00,0.0,meteohub,2013-05-13 07:47:00,
2013-05-13 00:52:00,56.8,47.1,30.15,West,272,0.0,1.0,70,0.00,,,0.00,0.0,meteohub,2013-05-13 07:52:00,
2013-05-13 00:57:00,56.7,46.9,30.16,West,272,0.0,2.0,70,0.00,,,0.00,0.0,meteohub,2013-05-13 07:57:00,
2013-05-13 01:02:00,56.7,45.9,30.15,WSW,240,0.0,2.0,67,0.00,,,0.00,0.0,meteohub,2013-05-13 08:02:00,
2013-05-13 01:07:00,56.7,45.5,30.15,WSW,244,1.0,4.0,66,0.00,,,0.00,0.0,meteohub,2013-05-13 08:07:00,
2013-05-13 01:12:00,56.7,45.5,30.15,WSW,244,0.0,4.0,66,0.00,,,0.00,0.0,meteohub,2013-05-13 08:12:00,
2013-05-13 01:17:00,56.7,45.5,30.15,WSW,244,2.0,4.0,66,0.00,,,0.00,0.0,meteohub,2013-05-13 08:17:00,
2013-05-13 01:22:00,56.7,45.9,30.15,WSW,246,2.0,4.0,67,0.00,,,0.00,0.0,meteohub,2013-05-13 08:22:00,
2013-05-13 01:27:00,56.8,45.7,30.15,SW,225,1.0,4.0,66,0.00,,,0.00,0.0,meteohub,2013-05-13 08:27:00,
2013-05-13 01:32:00,56.7,45.5,30.15,SW,229,0.0,4.0,66,0.00,,,0.00,0.0,meteohub,2013-05-13 08:32:00,
2013-05-13 01:37:00,56.7,45.5,30.15,WSW,244,2.0,4.0,66,0.00,,,0.00,0.0,meteohub,2013-05-13 08:37:00,
2013-05-13 01:42:00,56.7,45.9,30.15,SW,236,0.0,4.0,67,0.00,,,0.00,0.0,meteohub,2013-05-13 08:42:00,
2013-05-13 01:47:00,56.7,46.2,30.15,SSW,213,0.0,4.0,68,0.00,,,0.00,0.0,meteohub,2013-05-13 08:47:00,
2013-05-13 01:52:00,56.7,46.9,30.15,WSW,247,0.0,5.0,70,0.00,,,0.00,0.0,meteohub,2013-05-13 08:52:00,
2013-05-13 01:57:00,56.5,47.5,30.15,WSW,248,0.0,5.0,72,0.00,,,0.00,0.0,meteohub,2013-05-13 08:57:00,
2013-05-13 02:02:00,56.3,48.2,30.15,SSW,210,0.0,3.0,74,0.00,,,0.00,0.0,meteohub,2013-05-13 09:02:00,
2013-05-13 02:07:00,55.9,48.2,30.15,WSW,241,4.0,4.0,75,0.00,,,0.00,0.0,meteohub,2013-05-13 09:07:00,
2013-05-13 02:12:00,55.6,48.2,30.15,WSW,238,5.0,5.0,76,0.00,,,0.00,0.0,meteohub,2013-05-13 09:12:00,
2013-05-13 02:17:00,55.2,48.2,30.15,SW,214,1.0,6.0,77,0.00,,,0.00,0.0,meteohub,2013-05-13 09:17:00,
2013-05-13 02:22:00,55.0,48.4,30.15,WSW,246,0.0,6.0,78,0.00,,,0.00,0.0,meteohub,2013-05-13 09:22:00,
2013-05-13 02:27:00,54.9,48.6,30.15,WSW,253,3.0,6.0,79,0.00,,,0.00,0.0,meteohub,2013-05-13 09:27:00,
2013-05-13 02:32:00,54.7,48.4,30.15,WSW,244,3.0,6.0,79,0.00,,,0.00,0.0,meteohub,2013-05-13 09:32:00,
2013-05-13 02:37:00,54.3,48.6,30.14,WSW,242,3.0,7.0,81,0.00,,,0.00,0.0,meteohub,2013-05-13 09:37:00,
2013-05-13 02:42:00,54.1,48.7,30.15,SW,235,2.0,7.0,82,0.00,,,0.00,0.0,meteohub,2013-05-13 09:42:00,
2013-05-13 02:47:00,54.0,48.6,30.14,SW,224,5.0,9.0,82,0.00,,,0.00,0.0,meteohub,2013-05-13 09:47:00,
2013-05-13 02:52:00,53.8,48.4,30.14,WSW,246,1.0,9.0,82,0.00,,,0.00,0.0,meteohub,2013-05-13 09:52:00,
2013-05-13 02:57:00,53.4,48.4,30.14,WSW,250,2.0,7.0,83,0.00,,,0.00,0.0,meteohub,2013-05-13 09:57:00,
2013-05-13 03:02:00,53.4,48.4,30.14,SSW,198,1.0,7.0,83,0.00,,,0.00,0.0,meteohub,2013-05-13 10:02:00,
2013-05-13 03:07:00,53.2,48.2,30.14,SSW,209,0.0,5.0,83,0.00,,,0.00,0.0,meteohub,2013-05-13 10:07:00,
2013-05-13 03:12:00,53.2,48.2,30.14,SW,216,1.0,5.0,83,0.00,,,0.00,0.0,meteohub,2013-05-13 10:12:00,
2013-05-13 03:17:00,53.1,48.0,30.14,WSW,246,1.0,3.0,83,0.00,,,0.00,0.0,meteohub,2013-05-13 10:17:00,
2013-05-13 03:22:00,52.9,47.8,30.14,WSW,245,1.0,3.0,83,0.00,,,0.00,0.0,meteohub,2013-05-13 10:22:00,
2013-05-13 03:27:00,52.9,47.8,30.14,West,263,2.0,5.0,83,0.00,,,0.00,0.0,meteohub,2013-05-13 10:27:00,
2013-05-13 03:32:00,52.7,47.7,30.14,SSW,211,2.0,5.0,83,0.00,,,0.00,0.0,meteohub,2013-05-13 10:32:00,
2013-05-13 03:37:00,52.5,47.5,30.14,SW,223,0.0,6.0,83,0.00,,,0.00,0.0,meteohub,2013-05-13 10:37:00,
2013-05-13 03:42:00,52.5,47.5,30.14,WSW,254,3.0,6.0,83,0.00,,,0.00,0.0,meteohub,2013-05-13 10:42:00,
2013-05-13 03:47:00,52.3,47.7,30.14,WSW,248,6.0,7.0,84,0.00,,,0.00,0.0,meteohub,2013-05-13 10:47:00,
2013-05-13 03:52:00,52.3,47.7,30.14,South,188,0.0,7.0,84,0.00,,,0.00,0.0,meteohub,2013-05-13 10:52:00,
2013-05-13 03:57:00,52.3,47.7,30.14,WSW,246,0.0,7.0,84,0.00,,,0.00,0.0,meteohub,2013-05-13 10:57:00,
2013-05-13 04:07:00,52.2,47.5,30.15,WSW,244,1.0,6.0,84,0.00,,,0.00,0.0,meteohub,2013-05-13 11:07:00,
2013-05-13 04:12:00,52.2,47.8,30.15,WSW,244,1.0,5.0,85,0.00,,,0.00,0.0,meteohub,2013-05-13 11:12:00,
2013-05-13 04:17:00,52.0,47.7,30.15,WSW,252,5.0,8.0,85,0.00,,,0.00,0.0,meteohub,2013-05-13 11:17:00,
2013-05-13 04:22:00,52.0,47.7,30.15,SW,235,2.0,8.0,85,0.00,,,0.00,0.0,meteohub,2013-05-13 11:22:00,
2013-05-13 04:27:00,51.8,47.5,30.15,SW,225,3.0,8.0,85,0.00,,,0.00,0.0,meteohub,2013-05-13 11:27:00,
2013-05-13 04:32:00,51.6,47.3,30.15,SW,234,0.0,7.0,85,0.00,,,0.00,0.0,meteohub,2013-05-13 11:32:00,
2013-05-13 04:37:00,51.6,47.3,30.15,WSW,238,1.0,6.0,85,0.00,,,0.00,0.0,meteohub,2013-05-13 11:37:00,
2013-05-13 04:42:00,51.6,47.3,30.15,WNW,299,1.0,5.0,85,0.00,,,0.00,0.0,meteohub,2013-05-13 11:42:00,
2013-05-13 04:47:00,51.6,47.3,30.15,WNW,299,0.0,5.0,85,0.00,,,0.00,0.0,meteohub,2013-05-13 11:47:00,
2013-05-13 04:52:00,51.6,47.3,30.15,West,271,0.0,3.0,85,0.00,,,0.00,0.0,meteohub,2013-05-13 11:52:00,
2013-05-13 04:57:00,51.6,47.3,30.15,West,278,0.0,3.0,85,0.00,,,0.00,0.0,meteohub,2013-05-13 11:57:00,
2013-05-13 05:02:00,51.4,47.1,30.15,WSW,249,1.0,3.0,85,0.00,,,0.00,0.0,meteohub,2013-05-13 12:02:00,
2013-05-13 05:07:00,51.4,47.1,30.14,SW,236,0.0,4.0,85,0.00,,,0.00,0.0,meteohub,2013-05-13 12:07:00,
2013-05-13 05:12:00,51.3,46.9,30.15,SW,236,0.0,4.0,85,0.00,,,0.00,0.0,meteohub,2013-05-13 12:12:00,
2013-05-13 05:17:00,51.3,46.9,30.15,SW,236,0.0,4.0,85,0.00,,,0.00,0.0,meteohub,2013-05-13 12:17:00,
2013-05-13 05:22:00,51.1,46.8,30.15,SW,229,0.0,1.0,85,0.00,,,0.00,0.0,meteohub,2013-05-13 12:22:00,
2013-05-13 05:27:00,51.1,46.8,30.15,SW,227,2.0,3.0,85,0.00,,,0.00,0.0,meteohub,2013-05-13 12:27:00,
2013-05-13 05:32:00,50.9,46.9,30.16,WSW,254,5.0,6.0,86,0.00,,,0.00,0.0,meteohub,2013-05-13 12:32:00,
2013-05-13 05:37:00,50.7,46.8,30.16,WSW,242,2.0,6.0,86,0.00,,,0.00,0.0,meteohub,2013-05-13 12:37:00,
2013-05-13 05:42:00,50.7,46.8,30.16,WSW,246,2.0,6.0,86,0.00,,,0.00,0.0,meteohub,2013-05-13 12:42:00,
2013-05-13 05:47:00,50.7,46.8,30.16,SW,217,1.0,6.0,86,0.00,,,0.00,0.0,meteohub,2013-05-13 12:47:00,
2013-05-13 05:52:00,50.7,46.8,30.16,West,271,2.0,5.0,86,0.00,,,0.00,0.0,meteohub,2013-05-13 12:52:00,
2013-05-13 05:57:00,50.7,46.8,30.17,West,275,1.0,4.0,86,0.00,,,0.00,0.0,meteohub,2013-05-13 12:57:00,
2013-05-13 06:02:00,50.9,46.6,30.17,West,261,2.0,6.0,85,0.00,,,0.00,0.0,meteohub,2013-05-13 13:02:00,
2013-05-13 06:07:00,51.1,46.8,30.17,SW,232,0.0,6.0,85,0.00,,,0.00,0.0,meteohub,2013-05-13 13:07:00,
2013-05-13 06:12:00,51.1,46.8,30.17,SSW,209,1.0,5.0,85,0.00,,,0.00,5.0,meteohub,2013-05-13 13:12:00,
2013-05-13 06:17:00,50.9,46.6,30.17,West,259,1.0,5.0,85,0.00,,,0.00,5.0,meteohub,2013-05-13 13:17:00,
2013-05-13 06:22:00,50.9,46.6,30.17,WSW,252,0.0,5.0,85,0.00,,,0.00,7.0,meteohub,2013-05-13 13:22:00,
2013-05-13 06:27:00,50.9,46.9,30.18,SW,229,1.0,5.0,86,0.00,,,0.00,9.0,meteohub,2013-05-13 13:27:00,
2013-05-13 06:32:00,50.7,46.8,30.18,West,259,0.0,4.0,86,0.00,,,0.00,9.0,meteohub,2013-05-13 13:32:00,
2013-05-13 06:37:00,50.9,46.9,30.18,WSW,248,0.0,6.0,86,0.00,,,0.00,11.0,meteohub,2013-05-13 13:37:00,
2013-05-13 06:42:00,50.9,46.9,30.17,West,260,1.0,6.0,86,0.00,,,0.00,12.0,meteohub,2013-05-13 13:42:00,
2013-05-13 06:47:00,51.1,47.1,30.18,West,260,0.0,6.0,86,0.00,,,0.00,12.0,meteohub,2013-05-13 13:47:00,
2013-05-13 06:52:00,51.1,47.1,30.18,West,260,0.0,6.0,86,0.00,,,0.00,12.0,meteohub,2013-05-13 13:52:00,
2013-05-13 06:57:00,51.1,47.1,30.17,West,260,0.0,3.0,86,0.00,,,0.00,14.0,meteohub,2013-05-13 13:57:00,
2013-05-13 07:02:00,51.1,47.1,30.17,West,260,0.0,2.0,86,0.00,,,0.00,14.0,meteohub,2013-05-13 14:02:00,
2013-05-13 07:07:00,51.1,47.1,30.17,West,260,0.0,2.0,86,0.00,,,0.00,16.0,meteohub,2013-05-13 14:07:00,
2013-05-13 07:12:00,51.3,47.3,30.17,West,260,0.0,2.0,86,0.00,,,0.00,16.0,meteohub,2013-05-13 14:12:00,
2013-05-13 07:17:00,51.4,47.5,30.17,WSW,246,1.0,2.0,86,0.00,,,0.00,18.0,meteohub,2013-05-13 14:17:00,
2013-05-13 07:22:00,51.8,47.5,30.18,SW,227,1.0,3.0,85,0.00,,,0.00,18.0,meteohub,2013-05-13 14:22:00,
2013-05-13 07:32:00,52.5,47.8,30.18,WSW,238,2.0,3.0,84,0.00,,,0.00,19.0,meteohub,2013-05-13 14:32:00,
2013-05-13 07:37:00,53.1,48.4,30.18,WSW,238,2.0,5.0,84,0.00,,,0.00,19.0,meteohub,2013-05-13 14:37:00,
2013-05-13 07:42:00,53.4,48.4,30.18,WSW,238,2.0,5.0,83,0.00,,,0.00,21.0,meteohub,2013-05-13 14:42:00,
2013-05-13 07:47:00,53.8,48.7,30.18,SW,226,0.0,5.0,83,0.00,,,0.00,21.0,meteohub,2013-05-13 14:47:00,
2013-05-13 07:52:00,54.0,48.9,30.19,WSW,252,4.0,5.0,83,0.00,,,0.00,21.0,meteohub,2013-05-13 14:52:00,
2013-05-13 07:57:00,54.1,49.1,30.19,WSW,250,3.0,7.0,83,0.00,,,0.00,23.0,meteohub,2013-05-13 14:57:00,
2013-05-13 08:02:00,54.3,49.3,30.19,SW,234,6.0,9.0,83,0.00,,,0.00,23.0,meteohub,2013-05-13 15:02:00,
2013-05-13 08:07:00,54.5,49.8,30.19,SW,236,5.0,9.0,84,0.00,,,0.00,23.0,meteohub,2013-05-13 15:07:00,
2013-05-13 08:12:00,54.5,49.8,30.19,WSW,252,4.0,9.0,84,0.00,,,0.00,23.0,meteohub,2013-05-13 15:12:00,
2013-05-13 08:17:00,54.5,49.8,30.19,WSW,239,7.0,8.0,84,0.00,,,0.00,23.0,meteohub,2013-05-13 15:17:00,
2013-05-13 08:27:00,54.9,49.8,30.20,SW,221,3.0,10.0,83,0.00,,,0.00,32.0,meteohub,2013-05-13 15:27:00,
2013-05-13 08:32:00,55.0,50.4,30.20,WSW,238,2.0,10.0,84,0.00,,,0.00,25.0,meteohub,2013-05-13 15:32:00,
2013-05-13 08:37:00,55.4,50.4,30.20,WSW,254,4.0,7.0,83,0.00,,,0.00,26.0,meteohub,2013-05-13 15:37:00,
2013-05-13 08:42:00,55.6,50.5,30.20,SW,230,0.0,7.0,83,0.00,,,0.00,26.0,meteohub,2013-05-13 15:42:00,
2013-05-13 08:47:00,55.8,50.4,30.20,SW,226,1.0,8.0,82,0.00,,,0.00,26.0,meteohub,2013-05-13 15:47:00,
2013-05-13 08:52:00,56.1,50.4,30.20,West,261,4.0,8.0,81,0.00,,,0.00,28.0,meteohub,2013-05-13 15:52:00,
2013-05-13 08:57:00,56.5,50.4,30.20,WSW,248,2.0,8.0,80,0.00,,,0.00,28.0,meteohub,2013-05-13 15:57:00,
2013-05-13 09:02:00,56.8,50.4,30.20,West,263,1.0,6.0,79,0.00,,,0.00,28.0,meteohub,2013-05-13 16:02:00,
2013-05-13 09:07:00,57.6,50.4,30.20,WSW,239,3.0,6.0,77,0.00,,,0.00,28.0,meteohub,2013-05-13 16:07:00,
2013-05-13 09:12:00,57.9,50.4,30.20,SW,221,0.0,6.0,76,0.00,,,0.00,30.0,meteohub,2013-05-13 16:12:00,
2013-05-13 09:17:00,58.5,50.5,30.20,WSW,249,1.0,6.0,75,0.00,,,0.00,30.0,meteohub,2013-05-13 16:17:00,
2013-05-13 09:22:00,59.2,51.3,30.20,SSW,194,1.0,6.0,75,0.00,,,0.00,32.0,meteohub,2013-05-13 16:22:00,
2013-05-13 09:27:00,60.1,51.8,30.20,WSW,246,2.0,6.0,74,0.00,,,0.00,32.0,meteohub,2013-05-13 16:27:00,
2013-05-13 09:32:00,60.6,51.1,30.20,SW,222,4.0,7.0,71,0.00,,,0.00,33.0,meteohub,2013-05-13 16:32:00,
2013-05-13 09:37:00,61.2,51.3,30.21,West,275,2.0,7.0,70,0.00,,,0.00,40.0,meteohub,2013-05-13 16:37:00,
2013-05-13 09:42:00,61.5,51.6,30.20,West,273,4.0,8.0,70,0.00,,,0.00,35.0,meteohub,2013-05-13 16:42:00,
2013-05-13 09:47:00,62.1,51.4,30.21,WSW,255,4.0,8.0,68,0.00,,,0.00,37.0,meteohub,2013-05-13 16:47:00,
2013-05-13 09:52:00,62.4,52.5,30.21,SW,217,1.0,8.0,70,0.00,,,0.00,37.0,meteohub,2013-05-13 16:52:00,
2013-05-13 09:57:00,63.0,52.7,30.21,SW,233,5.0,8.0,69,0.00,,,0.00,39.0,meteohub,2013-05-13 16:57:00,
2013-05-13 10:03:00,63.1,52.9,30.21,WSW,237,7.0,8.0,69,0.00,,,0.00,47.0,meteohub,2013-05-13 17:03:00,
2013-05-13 10:08:00,63.7,53.2,30.21,SW,221,3.0,9.0,69,0.00,,,0.00,49.0,meteohub,2013-05-13 17:08:00,
2013-05-13 10:13:00,64.0,53.6,30.21,WSW,248,6.0,9.0,69,0.00,,,0.00,44.0,meteohub,2013-05-13 17:13:00,
2013-05-13 10:18:00,64.2,53.4,30.21,WSW,248,5.0,9.0,68,0.00,,,0.00,46.0,meteohub,2013-05-13 17:18:00,
2013-05-13 10:23:00,64.8,53.6,30.21,SW,234,4.0,10.0,67,0.00,,,0.00,77.0,meteohub,2013-05-13 17:23:00,
2013-05-13 10:29:00,65.1,54.0,30.21,WSW,253,3.0,10.0,67,0.00,,,0.00,67.0,meteohub,2013-05-13 17:29:00,
2013-05-13 10:34:00,65.7,54.0,30.21,WSW,244,1.0,10.0,66,0.00,,,0.00,149.0,meteohub,2013-05-13 17:34:00,
2013-05-13 10:39:00,66.2,53.6,30.21,SW,225,1.0,10.0,64,0.00,,,0.00,754.0,meteohub,2013-05-13 17:39:00,
2013-05-13 10:44:00,66.6,54.0,30.20,SW,221,4.0,9.0,64,0.00,,,0.00,768.0,meteohub,2013-05-13 17:44:00,
2013-05-13 10:49:00,67.3,54.3,30.20,West,278,4.0,9.0,63,0.00,,,0.00,779.0,meteohub,2013-05-13 17:49:00,
2013-05-13 10:54:00,68.4,54.0,30.20,WSW,255,3.0,8.0,60,0.00,,,0.00,791.0,meteohub,2013-05-13 17:54:00,
2013-05-13 11:00:00,69.1,54.7,30.20,WSW,250,3.0,8.0,60,0.00,,,0.00,800.0,meteohub,2013-05-13 18:00:00,
2013-05-13 11:05:00,70.0,54.5,30.20,West,267,6.0,9.0,58,0.00,,,0.00,480.0,meteohub,2013-05-13 18:05:00,
2013-05-13 11:10:00,70.9,54.9,30.20,WSW,250,4.0,9.0,57,0.00,,,0.00,70.0,meteohub,2013-05-13 18:10:00,
2013-05-13 11:15:00,71.4,54.5,30.20,WSW,254,4.0,9.0,55,0.00,,,0.00,56.0,meteohub,2013-05-13 18:15:00,
2013-05-13 11:20:00,72.1,55.0,30.20,West,259,3.0,8.0,55,0.00,,,0.00,56.0,meteohub,2013-05-13 18:20:00,
2013-05-13 11:25:00,72.7,54.5,30.20,WSW,240,5.0,8.0,53,0.00,,,0.00,58.0,meteohub,2013-05-13 18:25:00,
2013-05-13 11:30:00,73.2,54.5,30.20,WSW,244,4.0,9.0,52,0.00,,,0.00,58.0,meteohub,2013-05-13 18:30:00,
2013-05-13 11:35:00,73.9,54.7,30.20,West,259,4.0,9.0,51,0.00,,,0.00,60.0,meteohub,2013-05-13 18:35:00,
2013-05-13 11:40:00,74.5,54.1,30.20,WNW,290,2.0,9.0,49,0.00,,,0.00,60.0,meteohub,2013-05-13 18:40:00,
2013-05-13 11:46:00,75.0,54.5,30.20,NW,325,2.0,10.0,49,0.00,,,0.00,60.0,meteohub,2013-05-13 18:46:00,
2013-05-13 11:51:00,75.7,55.8,30.20,WSW,244,2.0,10.0,50,0.00,,,0.00,62.0,meteohub,2013-05-13 18:51:00,
2013-05-13 11:56:00,76.6,55.4,30.20,SW,234,5.0,10.0,48,0.00,,,0.00,62.0,meteohub,2013-05-13 18:56:00,
2013-05-13 12:01:00,77.2,55.4,30.20,WSW,247,8.0,8.0,47,0.00,,,0.00,63.0,meteohub,2013-05-13 19:01:00,
2013-05-13 12:06:00,77.0,56.3,30.20,WNW,286,4.0,8.0,49,0.00,,,0.00,65.0,meteohub,2013-05-13 19:06:00,
2013-05-13 12:11:00,77.2,55.9,30.20,WSW,258,4.0,8.0,48,0.00,,,0.00,70.0,meteohub,2013-05-13 19:11:00,
2013-05-13 12:16:00,77.2,55.4,30.20,SSW,212,7.0,8.0,47,0.00,,,0.00,246.0,meteohub,2013-05-13 19:16:00,
2013-05-13 12:21:00,76.5,55.9,30.19,SW,235,3.0,10.0,49,0.00,,,0.00,923.0,meteohub,2013-05-13 19:21:00,
2013-05-13 12:26:00,77.4,56.1,30.19,West,276,3.0,10.0,48,0.00,,,0.00,930.0,meteohub,2013-05-13 19:26:00,
2013-05-13 12:32:00,77.4,56.1,30.19,SW,221,1.0,9.0,48,0.00,,,0.00,932.0,meteohub,2013-05-13 19:32:00,
2013-05-13 12:37:00,77.5,55.8,30.19,WSW,240,8.0,9.0,47,0.00,,,0.00,937.0,meteohub,2013-05-13 19:37:00,
2013-05-13 12:42:00,77.7,56.5,30.19,WSW,244,2.0,9.0,48,0.00,,,0.00,942.0,meteohub,2013-05-13 19:42:00,
2013-05-13 12:47:00,78.8,56.3,30.18,WNW,297,3.0,8.0,46,0.00,,,0.00,956.0,meteohub,2013-05-13 19:47:00,
2013-05-13 12:52:00,79.5,56.3,30.18,WNW,294,2.0,8.0,45,0.00,,,0.00,947.0,meteohub,2013-05-13 19:52:00,
2013-05-13 12:57:00,80.2,56.3,30.18,SW,229,1.0,8.0,44,0.00,,,0.00,947.0,meteohub,2013-05-13 19:57:00,
2013-05-13 13:02:00,80.2,55.8,30.18,WSW,242,6.0,8.0,43,0.00,,,0.00,949.0,meteohub,2013-05-13 20:02:00,
2013-05-13 13:07:00,79.9,56.7,30.18,SW,227,3.0,9.0,45,0.00,,,0.00,951.0,meteohub,2013-05-13 20:07:00,
2013-05-13 13:12:00,79.7,57.0,30.18,West,264,4.0,9.0,46,0.00,,,0.00,947.0,meteohub,2013-05-13 20:12:00,
2013-05-13 13:17:00,80.8,57.4,30.17,SSW,200,2.0,9.0,45,0.00,,,0.00,949.0,meteohub,2013-05-13 20:17:00,
2013-05-13 13:22:00,80.4,56.5,30.17,West,269,4.0,10.0,44,0.00,,,0.00,949.0,meteohub,2013-05-13 20:22:00,
2013-05-13 13:27:00,80.6,57.4,30.17,SW,236,4.0,10.0,45,0.00,,,0.00,947.0,meteohub,2013-05-13 20:27:00,
2013-05-13 13:32:00,80.6,56.7,30.17,WSW,251,0.0,10.0,44,0.00,,,0.00,951.0,meteohub,2013-05-13 20:32:00,
2013-05-13 13:37:00,81.1,57.2,30.17,WSW,257,1.0,10.0,44,0.00,,,0.00,946.0,meteohub,2013-05-13 20:37:00,
2013-05-13 13:42:00,81.3,56.7,30.17,WSW,246,6.0,10.0,43,0.00,,,0.00,947.0,meteohub,2013-05-13 20:42:00,
2013-05-13 13:47:00,81.0,57.0,30.17,WNW,284,4.0,9.0,44,0.00,,,0.00,962.0,meteohub,2013-05-13 20:47:00,
2013-05-13 13:52:00,81.7,57.6,30.16,West,263,2.0,9.0,44,0.00,,,0.00,976.0,meteohub,2013-05-13 20:52:00,
2013-05-13 13:57:00,82.8,57.4,30.17,SW,234,1.0,9.0,42,0.00,,,0.00,949.0,meteohub,2013-05-13 20:57:00,
2013-05-13 14:02:00,82.8,57.9,30.16,WSW,238,2.0,9.0,43,0.00,,,0.00,937.0,meteohub,2013-05-13 21:02:00,
2013-05-13 14:07:00,82.6,57.7,30.16,SW,232,4.0,10.0,43,0.00,,,0.00,933.0,meteohub,2013-05-13 21:07:00,
2013-05-13 14:12:00,82.6,57.7,30.16,SW,221,3.0,10.0,43,0.00,,,0.00,928.0,meteohub,2013-05-13 21:12:00,
2013-05-13 14:17:00,83.3,57.7,30.16,WNW,291,4.0,10.0,42,0.00,,,0.00,923.0,meteohub,2013-05-13 21:17:00,
2013-05-13 14:22:00,82.9,57.6,30.16,West,261,9.0,10.0,42,0.00,,,0.00,914.0,meteohub,2013-05-13 21:22:00,
2013-05-13 14:27:00,82.0,57.9,30.16,WSW,257,2.0,12.0,44,0.00,,,0.00,911.0,meteohub,2013-05-13 21:27:00,
2013-05-13 14:32:00,82.2,57.6,30.15,WSW,252,5.0,13.0,43,0.00,,,0.00,907.0,meteohub,2013-05-13 21:32:00,
2013-05-13 14:37:00,82.8,58.6,30.15,SW,236,4.0,13.0,44,0.00,,,0.00,902.0,meteohub,2013-05-13 21:37:00,
2013-05-13 14:43:00,83.8,58.3,30.15,WNW,284,0.0,13.0,42,0.00,,,0.00,893.0,meteohub,2013-05-13 21:43:00,
2013-05-13 14:48:00,84.0,57.7,30.15,WSW,243,4.0,12.0,41,0.00,,,0.00,886.0,meteohub,2013-05-13 21:48:00,
2013-05-13 14:53:00,83.3,57.7,30.15,WSW,254,7.0,11.0,42,0.00,,,0.00,882.0,meteohub,2013-05-13 21:53:00,
2013-05-13 14:58:00,82.8,57.4,30.14,WSW,257,5.0,9.0,42,0.00,,,0.00,874.0,meteohub,2013-05-13 21:58:00,
2013-05-13 15:03:00,83.1,58.3,30.14,WSW,245,4.0,10.0,43,0.00,,,0.00,870.0,meteohub,2013-05-13 22:03:00,
2013-05-13 15:08:00,83.7,58.1,30.14,WSW,250,2.0,10.0,42,0.00,,,0.00,860.0,meteohub,2013-05-13 22:08:00,
2013-05-13 15:13:00,84.2,57.9,30.14,WSW,252,3.0,10.0,41,0.00,,,0.00,851.0,meteohub,2013-05-13 22:13:00,
2013-05-13 15:18:00,84.6,58.3,30.13,SW,235,9.0,10.0,41,0.00,,,0.00,847.0,meteohub,2013-05-13 22:18:00,
2013-05-13 15:23:00,84.2,57.2,30.13,West,262,4.0,11.0,40,0.00,,,0.00,835.0,meteohub,2013-05-13 22:23:00,
2013-05-13 15:28:00,83.7,57.4,30.13,West,263,7.0,11.0,41,0.00,,,0.00,826.0,meteohub,2013-05-13 22:28:00,
2013-05-13 15:34:00,84.4,56.7,30.13,West,277,5.0,13.0,39,0.00,,,0.00,816.0,meteohub,2013-05-13 22:34:00,
2013-05-13 15:39:00,84.9,57.2,30.12,West,262,3.0,13.0,39,0.00,,,0.00,803.0,meteohub,2013-05-13 22:39:00,
2013-05-13 15:44:00,84.7,58.5,30.12,WSW,250,5.0,8.0,41,0.00,,,0.00,791.0,meteohub,2013-05-13 22:44:00,
2013-05-13 15:49:00,85.3,58.3,30.12,SW,234,4.0,10.0,40,0.00,,,0.00,780.0,meteohub,2013-05-13 22:49:00,
2013-05-13 15:54:00,84.4,56.7,30.12,SW,231,5.0,10.0,39,0.00,,,0.00,772.0,meteohub,2013-05-13 22:54:00,
2013-05-13 15:59:00,83.8,57.6,30.12,WSW,251,5.0,11.0,41,0.00,,,0.00,758.0,meteohub,2013-05-13 22:59:00,
2013-05-13 16:04:00,83.7,57.4,30.12,WSW,258,6.0,11.0,41,0.00,,,0.00,745.0,meteohub,2013-05-13 23:04:00,
2013-05-13 16:09:00,82.9,57.6,30.12,West,259,4.0,11.0,42,0.00,,,0.00,733.0,meteohub,2013-05-13 23:09:00,
2013-05-13 16:14:00,83.3,57.7,30.12,SW,228,2.0,10.0,42,0.00,,,0.00,721.0,meteohub,2013-05-13 23:14:00,
2013-05-13 16:19:00,83.1,57.0,30.11,WSW,244,11.0,11.0,41,0.00,,,0.00,707.0,meteohub,2013-05-13 23:19:00,
2013-05-13 16:24:00,82.8,57.4,30.11,West,264,3.0,10.0,42,0.00,,,0.00,691.0,meteohub,2013-05-13 23:24:00,
2013-05-13 16:29:00,83.1,57.6,30.11,WSW,257,4.0,11.0,42,0.00,,,0.00,680.0,meteohub,2013-05-13 23:29:00,
2013-05-13 16:35:00,83.5,57.9,30.11,SW,225,5.0,11.0,42,0.00,,,0.00,664.0,meteohub,2013-05-13 23:35:00,
2013-05-13 16:40:00,83.1,57.6,30.10,WSW,250,5.0,9.0,42,0.00,,,0.00,652.0,meteohub,2013-05-13 23:40:00,
2013-05-13 16:45:00,82.8,57.4,30.10,WSW,253,10.0,11.0,42,0.00,,,0.00,640.0,meteohub,2013-05-13 23:45:00,
2013-05-13 16:50:00,82.0,57.4,30.10,WSW,258,5.0,11.0,43,0.00,,,0.00,624.0,meteohub,2013-05-13 23:50:00,
2013-05-13 16:55:00,81.9,57.7,30.10,WSW,252,5.0,11.0,44,0.00,,,0.00,606.0,meteohub,2013-05-13 23:55:00,
2013-05-13 17:00:00,82.0,57.4,30.10,SSW,205,10.0,11.0,43,0.00,,,0.00,596.0,meteohub,2013-05-14 00:00:00,
2013-05-13 17:06:00,82.0,57.4,30.10,WSW,249,7.0,10.0,43,0.00,,,0.00,577.0,meteohub,2013-05-14 00:06:00,
2013-05-13 17:11:00,81.3,57.4,30.10,SW,215,7.0,10.0,44,0.00,,,0.00,561.0,meteohub,2013-05-14 00:11:00,
2013-05-13 17:16:00,81.0,57.6,30.10,WSW,251,2.0,11.0,45,0.00,,,0.00,547.0,meteohub,2013-05-14 00:16:00,
2013-05-13 17:21:00,80.2,57.6,30.10,SW,229,6.0,11.0,46,0.00,,,0.00,529.0,meteohub,2013-05-14 00:21:00,
2013-05-13 17:26:00,80.1,57.4,30.09,WSW,248,3.0,11.0,46,0.00,,,0.00,513.0,meteohub,2013-05-14 00:26:00,
2013-05-13 17:31:00,80.2,57.6,30.09,WSW,251,6.0,11.0,46,0.00,,,0.00,497.0,meteohub,2013-05-14 00:31:00,
2013-05-13 17:36:00,80.1,57.4,30.09,West,275,4.0,11.0,46,0.00,,,0.00,480.0,meteohub,2013-05-14 00:36:00,
2013-05-13 17:41:00,79.9,57.2,30.09,SW,233,1.0,11.0,46,0.00,,,0.00,464.0,meteohub,2013-05-14 00:41:00,
2013-05-13 17:46:00,79.9,57.2,30.09,WSW,241,4.0,12.0,46,0.00,,,0.00,446.0,meteohub,2013-05-14 00:46:00,
2013-05-13 17:52:00,79.9,57.2,30.09,SW,234,9.0,12.0,46,0.00,,,0.00,431.0,meteohub,2013-05-14 00:52:00,
2013-05-13 17:57:00,79.3,56.8,30.09,WSW,254,5.0,12.0,46,0.00,,,0.00,413.0,meteohub,2013-05-14 00:57:00,
2013-05-13 18:02:00,79.0,57.6,30.09,WNW,286,3.0,10.0,48,0.00,,,0.00,396.0,meteohub,2013-05-14 01:02:00,
2013-05-13 18:07:00,78.4,56.5,30.08,West,265,2.0,9.0,47,0.00,,,0.00,383.0,meteohub,2013-05-14 01:07:00,
2013-05-13 18:12:00,78.1,56.3,30.08,WNW,290,4.0,14.0,47,0.00,,,0.00,364.0,meteohub,2013-05-14 01:12:00,
2013-05-13 18:17:00,77.7,56.5,30.08,WSW,240,9.0,14.0,48,0.00,,,0.00,346.0,meteohub,2013-05-14 01:17:00,
2013-05-13 18:22:00,77.2,55.9,30.08,SSW,206,3.0,9.0,48,0.00,,,0.00,330.0,meteohub,2013-05-14 01:22:00,
2013-05-13 18:27:00,76.8,56.8,30.08,WSW,240,4.0,9.0,50,0.00,,,0.00,313.0,meteohub,2013-05-14 01:27:00,
2013-05-13 18:32:00,75.9,55.9,30.08,SW,234,7.0,9.0,50,0.00,,,0.00,295.0,meteohub,2013-05-14 01:32:00,
2013-05-13 18:37:00,75.6,56.1,30.08,NW,308,6.0,9.0,51,0.00,,,0.00,278.0,meteohub,2013-05-14 01:37:00,
2013-05-13 18:42:00,75.4,55.9,30.08,WSW,239,4.0,9.0,51,0.00,,,0.00,262.0,meteohub,2013-05-14 01:42:00,
2013-05-13 18:47:00,74.8,56.1,30.08,SW,236,4.0,9.0,52,0.00,,,0.00,243.0,meteohub,2013-05-14 01:47:00,
2013-05-13 18:52:00,74.7,55.9,30.07,West,277,4.0,9.0,52,0.00,,,0.00,223.0,meteohub,2013-05-14 01:52:00,
2013-05-13 18:57:00,74.3,55.6,30.07,West,275,2.0,9.0,52,0.00,,,0.00,206.0,meteohub,2013-05-14 01:57:00,
2013-05-13 19:02:00,73.8,55.0,30.07,WSW,254,3.0,9.0,52,0.00,,,0.00,183.0,meteohub,2013-05-14 02:02:00,
2013-05-13 19:07:00,73.4,55.2,30.06,West,269,4.0,9.0,53,0.00,,,0.00,162.0,meteohub,2013-05-14 02:07:00,
2013-05-13 19:12:00,73.0,55.4,30.06,WNW,286,5.0,8.0,54,0.00,,,0.00,144.0,meteohub,2013-05-14 02:12:00,
2013-05-13 19:17:00,72.7,55.0,30.06,West,267,4.0,8.0,54,0.00,,,0.00,125.0,meteohub,2013-05-14 02:17:00,
2013-05-13 19:22:00,72.0,55.4,30.06,WSW,244,5.0,8.0,56,0.00,,,0.00,105.0,meteohub,2013-05-14 02:22:00,
2013-05-13 19:27:00,71.2,54.7,30.06,SSW,206,6.0,9.0,56,0.00,,,0.00,86.0,meteohub,2013-05-14 02:27:00,
2013-05-13 19:32:00,70.5,55.0,30.06,SW,236,8.0,9.0,58,0.00,,,0.00,69.0,meteohub,2013-05-14 02:32:00,
2013-05-13 19:37:00,69.4,54.5,30.07,West,260,4.0,10.0,59,0.00,,,0.00,25.0,meteohub,2013-05-14 02:37:00,
2013-05-13 19:42:00,68.4,54.0,30.07,West,259,6.0,10.0,60,0.00,,,0.00,14.0,meteohub,2013-05-14 02:42:00,
2013-05-13 19:48:00,67.3,53.8,30.07,WSW,244,1.0,10.0,62,0.00,,,0.00,11.0,meteohub,2013-05-14 02:48:00,
2013-05-13 19:53:00,66.6,53.6,30.07,SW,227,3.0,10.0,63,0.00,,,0.00,9.0,meteohub,2013-05-14 02:53:00,
2013-05-13 19:58:00,66.2,53.6,30.07,WSW,253,3.0,10.0,64,0.00,,,0.00,5.0,meteohub,2013-05-14 02:58:00,
2013-05-13 20:03:00,65.8,53.2,30.07,WSW,246,2.0,10.0,64,0.00,,,0.00,5.0,meteohub,2013-05-14 03:03:00,
2013-05-13 20:08:00,65.7,53.2,30.07,SW,225,2.0,6.0,64,0.00,,,0.00,0.0,meteohub,2013-05-14 03:08:00,
2013-05-13 20:13:00,65.3,52.9,30.07,WSW,257,3.0,6.0,64,0.00,,,0.00,0.0,meteohub,2013-05-14 03:13:00,
2013-05-13 20:18:00,65.1,52.7,30.07,SW,236,2.0,8.0,64,0.00,,,0.00,0.0,meteohub,2013-05-14 03:18:00,
2013-05-13 20:23:00,65.1,52.7,30.07,SW,220,0.0,8.0,64,0.00,,,0.00,0.0,meteohub,2013-05-14 03:23:00,
2013-05-13 20:28:00,64.9,52.5,30.07,WSW,258,0.0,6.0,64,0.00,,,0.00,0.0,meteohub,2013-05-14 03:28:00,
2013-05-13 20:33:00,64.8,52.3,30.08,SW,227,0.0,5.0,64,0.00,,,0.00,0.0,meteohub,2013-05-14 03:33:00,
2013-05-13 20:38:00,64.8,52.7,30.07,SW,219,3.0,4.0,65,0.00,,,0.00,0.0,meteohub,2013-05-14 03:38:00,
2013-05-13 20:44:00,64.2,52.2,30.08,SW,224,3.0,5.0,65,0.00,,,0.00,0.0,meteohub,2013-05-14 03:44:00,
2013-05-13 20:49:00,64.0,52.5,30.08,West,269,1.0,6.0,66,0.00,,,0.00,0.0,meteohub,2013-05-14 03:49:00,
2013-05-13 20:54:00,63.5,52.3,30.08,WSW,244,5.0,8.0,67,0.00,,,0.00,0.0,meteohub,2013-05-14 03:54:00,
2013-05-13 20:59:00,63.0,52.2,30.08,West,279,3.0,8.0,68,0.00,,,0.00,0.0,meteohub,2013-05-14 03:59:00,
2013-05-13 21:01:00,62.8,52.0,30.08,WSW,250,4.0,8.0,68,0.00,,,0.00,0.0,meteohub,2013-05-14 04:01:00,
2013-05-13 21:02:00,62.4,52.2,30.09,SW,232,5.0,8.0,69,0.00,,,0.00,0.0,meteohub,2013-05-14 04:02:00,
2013-05-13 21:04:00,62.2,52.0,30.09,West,262,0.0,8.0,69,0.00,,,0.00,0.0,meteohub,2013-05-14 04:04:00,
2013-05-13 21:06:00,62.1,51.8,30.09,WSW,245,3.0,9.0,69,0.00,,,0.00,0.0,meteohub,2013-05-14 04:06:00,
2013-05-13 21:11:00,61.7,51.8,30.08,SW,231,4.0,9.0,70,0.00,,,0.00,0.0,meteohub,2013-05-14 04:11:00,
2013-05-13 21:16:00,61.3,51.4,30.08,WSW,241,2.0,8.0,70,0.00,,,0.00,0.0,meteohub,2013-05-14 04:16:00,
2013-05-13 21:21:00,61.2,51.6,30.09,West,279,3.0,8.0,71,0.00,,,0.00,0.0,meteohub,2013-05-14 04:21:00,
2013-05-13 21:26:00,60.8,51.3,30.09,SW,218,1.0,8.0,71,0.00,,,0.00,0.0,meteohub,2013-05-14 04:26:00,
2013-05-13 21:31:00,60.6,51.1,30.09,South,188,0.0,6.0,71,0.00,,,0.00,0.0,meteohub,2013-05-14 04:31:00,
2013-05-13 21:36:00,60.4,51.1,30.09,WSW,252,0.0,6.0,71,0.00,,,0.00,0.0,meteohub,2013-05-14 04:36:00,
2013-05-13 21:41:00,60.4,51.1,30.09,WSW,251,0.0,6.0,71,0.00,,,0.00,0.0,meteohub,2013-05-14 04:41:00,
2013-05-13 21:47:00,60.4,51.1,30.09,WSW,246,0.0,5.0,71,0.00,,,0.00,0.0,meteohub,2013-05-14 04:47:00,
2013-05-13 21:52:00,60.4,51.1,30.09,WSW,252,0.0,3.0,71,0.00,,,0.00,0.0,meteohub,2013-05-14 04:52:00,
2013-05-13 21:57:00,60.3,50.9,30.09,WSW,252,0.0,2.0,71,0.00,,,0.00,0.0,meteohub,2013-05-14 04:57:00,
2013-05-13 22:02:00,60.1,50.7,30.09,WSW,252,0.0,2.0,71,0.00,,,0.00,0.0,meteohub,2013-05-14 05:02:00,
2013-05-13 22:07:00,59.9,50.5,30.09,WSW,252,1.0,2.0,71,0.00,,,0.00,0.0,meteohub,2013-05-14 05:07:00,
2013-05-13 22:12:00,59.7,50.4,30.09,WSW,252,0.0,2.0,71,0.00,,,0.00,0.0,meteohub,2013-05-14 05:12:00,
2013-05-13 22:17:00,59.5,50.5,30.09,WSW,252,0.0,2.0,72,0.00,,,0.00,0.0,meteohub,2013-05-14 05:17:00,
2013-05-13 22:22:00,59.4,50.4,30.09,WSW,252,0.0,2.0,72,0.00,,,0.00,0.0,meteohub,2013-05-14 05:22:00,
2013-05-13 22:27:00,59.2,50.2,30.09,WSW,252,0.0,1.0,72,0.00,,,0.00,0.0,meteohub,2013-05-14 05:27:00,
2013-05-13 22:32:00,58.8,49.8,30.09,WSW,238,0.0,1.0,72,0.00,,,0.00,0.0,meteohub,2013-05-14 05:32:00,
2013-05-13 22:37:00,58.8,50.2,30.09,WSW,238,0.0,2.0,73,0.00,,,0.00,0.0,meteohub,2013-05-14 05:37:00,
2013-05-13 22:42:00,58.6,50.0,30.09,WSW,238,0.0,2.0,73,0.00,,,0.00,0.0,meteohub,2013-05-14 05:42:00,
2013-05-13 22:47:00,58.6,50.0,30.09,WSW,238,1.0,2.0,73,0.00,,,0.00,0.0,meteohub,2013-05-14 05:47:00,
2013-05-13 22:52:00,58.5,49.8,30.09,SW,225,0.0,3.0,73,0.00,,,0.00,0.0,meteohub,2013-05-14 05:52:00,
2013-05-13 22:57:00,58.5,49.8,30.08,SSW,210,2.0,3.0,73,0.00,,,0.00,0.0,meteohub,2013-05-14 05:57:00,
2013-05-13 23:02:00,58.5,49.8,30.09,WSW,244,1.0,6.0,73,0.00,,,0.00,0.0,meteohub,2013-05-14 06:02:00,
2013-05-13 23:07:00,58.6,50.0,30.08,West,267,3.0,6.0,73,0.00,,,0.00,0.0,meteohub,2013-05-14 06:07:00,
2013-05-13 23:12:00,58.5,49.8,30.08,SW,236,1.0,6.0,73,0.00,,,0.00,0.0,meteohub,2013-05-14 06:12:00,
2013-05-13 23:17:00,58.5,50.2,30.08,WSW,244,3.0,6.0,74,0.00,,,0.00,0.0,meteohub,2013-05-14 06:17:00,
2013-05-13 23:22:00,58.5,50.2,30.08,WSW,242,3.0,5.0,74,0.00,,,0.00,0.0,meteohub,2013-05-14 06:22:00,
2013-05-13 23:27:00,58.5,50.2,30.08,SW,233,2.0,5.0,74,0.00,,,0.00,0.0,meteohub,2013-05-14 06:27:00,
2013-05-13 23:32:00,58.5,50.2,30.07,SW,234,0.0,5.0,74,0.00,,,0.00,0.0,meteohub,2013-05-14 06:32:00,
2013-05-13 23:37:00,58.3,50.0,30.07,South,169,0.0,5.0,74,0.00,,,0.00,0.0,meteohub,2013-05-14 06:37:00,
2013-05-13 23:42:00,58.3,50.0,30.07,South,169,0.0,5.0,74,0.00,,,0.00,0.0,meteohub,2013-05-14 06:42:00,
2013-05-13 23:47:00,58.3,50.0,30.07,SW,217,0.0,2.0,74,0.00,,,0.00,0.0,meteohub,2013-05-14 06:47:00,
2013-05-13 23:52:00,57.9,49.6,30.06,SW,217,0.0,4.0,74,0.00,,,0.00,0.0,meteohub,2013-05-14 06:52:00,
2013-05-13 23:57:00,57.7,49.8,30.07,SSW,205,2.0,4.0,75,0.00,,,0.00,0.0,meteohub,2013-05-14 06:57:00,